Weather History for YBCS - March, 2012

Change the Weather History Date:

Sunday, March 11, 2012

  Actual Average Record
Temperature  
Mean Temperature 76 °F -  
Max Temperature 80 °F 86 °F - (-1)
Min Temperature 73 °F 72 °F - (-1)
Cooling Degree Days 12    
Growing Degree Days 26 (Base 50)    
Moisture  
Dew Point 73 °F    
Average Humidity 89    
Maximum Humidity 100    
Minimum Humidity 73    
Precipitation  
Precipitation 0.63 in 0.48 in - ()
Sea Level Pressure  
Sea Level Pressure 29.83 in    
Wind  
Wind Speed 8 mph ()    
Max Wind Speed 13 mph    
Max Gust Speed -    
Visibility 5.5 miles    
Events Rain    
Averages and records for this station are not official NWS values.
T = Trace of Precipitation, MM = Missing Value Source: Averaged Metar Reports

Daily Weather History Graph

Daily Weather History Graph

Search for Another Location

Airport or City:

Trip Planner

Search our weather history database for the weather conditions in past years. The results will help you decide how hot, cold, wet, or windy it might be!

Date:

Astronomy

Mar. 11, 2012 Rise Set
Actual Time 6:19 AM AEST 6:34 PM AEST
Civil Twilight 5:57 AM AEST 6:56 PM AEST
Nautical Twilight 5:32 AM AEST 7:21 PM AEST
Astronomical Twilight 5:06 AM AEST 7:46 PM AEST
Moon 8:40 PM AEST (3/11) 8:47 AM AEST (3/11)
Length of Visible Light 12h 58m
Length of Day
12h 15m
Waning Gibbous, 90% of the Moon is Illuminated
Mar 11
Waning Gibbous
Mar 15
Last Quarter
Mar 23
New
Mar 31
First Quarter
Apr 7
Full

Hourly Weather History & Observations

Time (AEST) Temp. Heat Index Dew Point Humidity Pressure Visibility Wind Dir Wind Speed Gust Speed Precip Events Conditions
12:00 AM 75 °F - 74 °F 96% 29.86 in 2 mi SE 6.9 mph - -   Overcast
12:00 AM 75.2 °F - 73.4 °F 94% 29.86 in 1.9 mi ESE 6.9 mph - N/A Rain Rain Showers
12:30 AM 75.2 °F - 73.4 °F 94% 29.86 in 5.0 mi SE 5.8 mph - N/A   Mostly Cloudy
1:00 AM 75 °F - 74 °F 95% 29.84 in - West 5.8 mph - -  
1:00 AM 75.2 °F - 73.4 °F 94% 29.83 in 5.6 mi West 5.8 mph - N/A   Mostly Cloudy
1:30 AM 75.2 °F - 73.4 °F 94% 29.83 in 6.2 mi South 9.2 mph - N/A Rain Light Rain Showers
2:00 AM 75.2 °F - 71.6 °F 89% 29.80 in 6.2 mi South 9.2 mph - N/A Rain Light Rain Showers
2:30 AM 75.2 °F - 73.4 °F 94% 29.80 in 6.2 mi South 5.8 mph - N/A Rain Light Rain Showers
3:00 AM 74 °F - 72 °F 91% 29.80 in - South 8.1 mph - -  
3:00 AM 75.2 °F - 71.6 °F 89% 29.80 in 6.2 mi South 8.1 mph - N/A Rain Light Rain Showers
3:30 AM 75.2 °F - 71.6 °F 89% 29.80 in 6.2 mi South 10.4 mph - N/A   Mostly Cloudy
4:00 AM 75 °F - 71 °F 85% 29.81 in - South 12.7 mph - -  
4:00 AM 75.2 °F - 71.6 °F 89% 29.80 in 6.2 mi South 12.7 mph - N/A   Mostly Cloudy
4:30 AM 75.2 °F - 71.6 °F 89% 29.80 in 6.2 mi South 12.7 mph - N/A Rain Light Rain Showers
5:00 AM 75.2 °F - 71.6 °F 89% 29.77 in 6.2 mi South 11.5 mph - N/A Rain Light Rain Showers
5:30 AM 75.2 °F - 71.6 °F 89% 29.80 in 6.2 mi SSE 10.4 mph - N/A   Mostly Cloudy
6:00 AM 75 °F - 72 °F 86% 29.80 in 9 mi South 10.4 mph - - Rain Light Rain Showers
6:00 AM 75.2 °F - 71.6 °F 89% 29.80 in 6.2 mi South 10.4 mph - N/A Rain Light Rain Showers
6:30 AM 75.2 °F - 71.6 °F 89% 29.80 in 6.2 mi South 11.5 mph - N/A   Mostly Cloudy
7:00 AM 75 °F - 72 °F 89% 29.83 in - South 11.5 mph - -  
7:00 AM 75.2 °F - 71.6 °F 89% 29.80 in 6.2 mi South 11.5 mph - N/A   Mostly Cloudy
7:30 AM 75.2 °F - 71.6 °F 89% 29.83 in 6.2 mi SSW 11.5 mph - N/A   Mostly Cloudy
8:00 AM 77.0 °F - 71.6 °F 83% 29.83 in 6.2 mi South 10.4 mph - N/A   Mostly Cloudy
8:30 AM 77.0 °F - 71.6 °F 83% 29.83 in 6.2 mi South 10.4 mph - N/A   Mostly Cloudy
9:00 AM 77 °F - 71 °F 76% 29.86 in 12 mi South 10.4 mph - -   Partly Cloudy
9:00 AM 77.0 °F - 71.6 °F 83% 29.86 in 6.2 mi South 10.4 mph - N/A   Mostly Cloudy
9:30 AM 77.0 °F - 71.6 °F 83% 29.86 in 6.2 mi South 10.4 mph - N/A   Mostly Cloudy
10:00 AM 79 °F - 72 °F 73% 29.86 in - South 10.4 mph - -  
10:00 AM 78.8 °F - 71.6 °F 78% 29.86 in 6.2 mi South 10.4 mph - N/A   Mostly Cloudy
10:30 AM 80.6 °F 84.6 °F 71.6 °F 74% 29.86 in 6.2 mi South 9.2 mph - N/A   Mostly Cloudy
11:00 AM 78.8 °F - 75.2 °F 89% 29.86 in 3.7 mi SSE 8.1 mph - N/A Rain Light Rain Showers
11:16 AM 78.8 °F - 75.2 °F 89% 29.86 in 6.2 mi ESE 8.1 mph - N/A   Mostly Cloudy
11:30 AM 78.8 °F - 75.2 °F 89% 29.86 in 6.2 mi NE 6.9 mph - N/A   Mostly Cloudy
11:50 AM 78.8 °F - 75.2 °F 89% 29.86 in 6.2 mi ENE 6.9 mph - N/A Rain Light Rain Showers
12:00 PM 78 °F - 74 °F 86% 29.85 in 2 mi East 6.9 mph - - Rain Light Rain Showers
12:00 PM 78.8 °F - 75.2 °F 89% 29.83 in 6.2 mi East 6.9 mph - N/A Rain Light Rain Showers
12:30 PM 77.0 °F - 75.2 °F 94% 29.83 in 6.2 mi SSE 11.5 mph - N/A   Mostly Cloudy
12:37 PM 77.0 °F - 73.4 °F 89% 29.83 in 3.7 mi SSE 10.4 mph - N/A Rain Light Rain Showers
12:54 PM 77.0 °F - 73.4 °F 89% 29.83 in 6.2 mi South 8.1 mph - N/A   Mostly Cloudy
1:00 PM 76 °F - 73 °F 88% 29.83 in - South 8.1 mph - -  
1:00 PM 77.0 °F - 73.4 °F 89% 29.83 in 6.2 mi South 8.1 mph - N/A Rain Light Rain Showers
1:30 PM 78.8 °F - 73.4 °F 83% 29.80 in 6.2 mi South 4.6 mph - N/A Rain Light Rain Showers
2:00 PM 78.8 °F - 75.2 °F 89% 29.80 in 6.2 mi NNE 4.6 mph - N/A   Mostly Cloudy
2:30 PM 80.6 °F 86.2 °F 75.2 °F 84% 29.80 in 6.2 mi ESE 5.8 mph - N/A Rain Light Rain Showers
3:00 PM 78 °F - 74 °F 82% 29.80 in 9 mi SE 12.7 mph - - Rain Light Rain Showers
3:00 PM 77.0 °F - 73.4 °F 89% 29.80 in 6.2 mi SE 12.7 mph - N/A Rain Light Rain Showers
3:08 PM 77.0 °F - 73.4 °F 89% 29.80 in 3.1 mi South 5.8 mph - N/A Rain Light Rain Showers
3:30 PM 77.0 °F - 75.2 °F 94% 29.80 in 3.1 mi SSE 6.9 mph - N/A Rain Light Rain Showers
3:42 PM 77.0 °F - 75.2 °F 94% 29.80 in 6.2 mi SSE 6.9 mph - N/A Rain Light Rain Showers
4:00 PM 78 °F - 75 °F 86% 29.80 in - SSE 6.9 mph - -  
4:00 PM 78.8 °F - 75.2 °F 89% 29.80 in 5.6 mi SSE 6.9 mph - N/A Rain Light Rain Showers
4:30 PM 77.0 °F - 73.4 °F 89% 29.77 in 6.2 mi SE 11.5 mph - N/A Rain Light Rain Showers
5:00 PM 77.0 °F - 73.4 °F 89% 29.80 in 6.2 mi South 8.1 mph - N/A Rain Light Rain Showers
5:30 PM 75.2 °F - 73.4 °F 94% 29.80 in 3.1 mi South 9.2 mph - N/A Rain Light Rain Showers
6:00 PM 75 °F - 73 °F 91% 29.82 in 3 mi South 10.4 mph - - Rain Light Rain Showers
6:00 PM 75.2 °F - 73.4 °F 94% 29.80 in 3.1 mi South 10.4 mph - N/A Rain Light Rain Showers
6:30 PM 75.2 °F - 71.6 °F 89% 29.80 in 3.1 mi South 12.7 mph - N/A Rain Light Rain Showers
6:39 PM 75.2 °F - 73.4 °F 94% 29.83 in 1.9 mi South 12.7 mph - N/A Rain Light Rain Showers
7:00 PM 74 °F - 73 °F 95% 29.85 in - South 10.4 mph - -  
7:00 PM 73.4 °F - 73.4 °F 100% 29.83 in 2.5 mi South 10.4 mph - N/A Rain Light Rain Showers
7:30 PM 73.4 °F - 73.4 °F 100% 29.83 in 3.1 mi South 10.4 mph - N/A Rain Light Rain Showers
7:52 PM 75.2 °F - 73.4 °F 94% 29.86 in 6.2 mi South 10.4 mph - N/A   Mostly Cloudy
8:00 PM 75.2 °F - 71.6 °F 89% 29.86 in 6.2 mi South 11.5 mph - N/A Rain Light Rain Showers
8:30 PM 75.2 °F - 71.6 °F 89% 29.86 in 6.2 mi South 12.7 mph - N/A   Mostly Cloudy
9:00 PM 74 °F - 72 °F 92% 29.88 in 12 mi South 12.7 mph - - Rain Light Drizzle
9:00 PM 75.2 °F - 71.6 °F 89% 29.86 in 6.2 mi South 12.7 mph - N/A   Light Drizzle
9:30 PM 75.2 °F - 73.4 °F 94% 29.89 in 3.1 mi SSE 11.5 mph - N/A Rain Light Rain Showers
9:48 PM 75.2 °F - 73.4 °F 94% 29.89 in 6.2 mi South 9.2 mph - N/A   Mostly Cloudy
10:00 PM 75 °F - 72 °F 87% 29.89 in - South 10.4 mph - -  
10:00 PM 75.2 °F - 71.6 °F 89% 29.89 in 6.2 mi South 10.4 mph - N/A   Mostly Cloudy
10:18 PM 75.2 °F - 71.6 °F 89% 29.89 in 2.5 mi South 9.2 mph - N/A Rain Light Rain Showers
10:30 PM 75.2 °F - 71.6 °F 89% 29.89 in 3.7 mi South 9.2 mph - N/A Rain Light Rain Showers
10:54 PM 75.2 °F - 73.4 °F 94% 29.89 in 5.6 mi South 8.1 mph - N/A Rain Light Rain Showers
11:00 PM 75.2 °F - 71.6 °F 89% 29.86 in 6.2 mi South 9.2 mph - N/A Rain Light Rain Showers
11:08 PM 73.4 °F - 73.4 °F 100% 29.86 in 3.7 mi South 9.2 mph - N/A Rain Light Rain Showers
11:30 PM 73.4 °F - 73.4 °F 100% 29.86 in 5.0 mi SSE 10.4 mph - N/A Rain Light Rain Showers